Regional Weather Roundup
Issued by NWS Columbia, SC

Home | Current Version | Previous Version | Text Only | Print | Product List | Glossary On
Versions: 1 2 3 4 5 6 7 8 9 10 11 12 13 14 15 16 17 18 19 20 21 22 23 24 25 26 27
000
ASUS42 KCAE 230710
RWRCAE
REGIONAL WEATHER ROUNDUP
NATIONAL WEATHER SERVICE COLUMBIA SC
300 AM EDT WED APR 23 2014

NOTE: "FAIR" INDICATES FEW OR NO CLOUDS BELOW 12,000 FEET WITH NO
SIGNIFICANT WEATHER AND/OR OBSTRUCTIONS TO VISIBILITY.

NOT ALL STATIONS ARE QUALITY CONTROLLED BY THE NATIONAL
WEATHER SERVICE. USE DATA WITH CAUTION...ESPECIALLY
DEWPOINT OBSERVATIONS.

SCZ001>056-GAZ040-063>065-077-230800-
...UPSTATE SOUTH CAROLINA...

CITY           SKY/WX    TMP DP  RH WIND       PRES   REMARKS
ANDERSON       CLEAR     59  57  93 W7        29.80F
LIBERTY        FAIR      56  34  43 MISG      29.80F
SPARTANBURG    FOG       59  59 100 CALM      29.78S VSB 1
CLEMSON        CLEAR     63  55  75 W13       29.81F
GREENVILLE     CLEAR     58  54  86 W6        29.80F
GREENWOOD      CLEAR     60  57  89 W5        29.80F
GREER          CLEAR     55  54  96 N5        29.78S FOG
ROCK HILL      CLEAR     59  58  96 W6        29.76F FOG
LAURENS        FAIR      59 N/A N/A SW5       29.79F FOG


...CENTRAL SOUTH CAROLINA...

CITY           SKY/WX    TMP DP  RH WIND       PRES   REMARKS
COLUMBIA APT   PTCLDY    59  58  96 CALM      29.76F FOG
COLUMBIA OWENS CLEAR     58  56  93 CALM      29.77F FOG
DARLINGTON     CLEAR     63  57  82 W7        29.74F
FLORENCE       CLEAR     62  60  93 W7        29.73F
MCENTIRE ANGB  FOG       57  57 100 W1        29.76F VSB 1/4
ORANGEBURG     CLEAR     62  58  86 W6        29.78F FOG
SUMTER SHAW    CLEAR     61  60  96 W8        29.74S
NEWBERRY       FAIR      59  59 100 W5        29.81F FOG
AIKEN          FAIR      59  59 100 W6        29.82F FOG
BARNWELL       FAIR      61  61 100 W6        29.80S FOG
MANNING        FAIR      63 N/A N/A CALM      29.76S
CAMDEN         FAIR      59  59 100 CALM      29.76F FOG
LANCASTER      LGT RAIN  55  55 100 CALM      29.76F VSB<1/4
WINNSBORO      FOG       59  59 100 W3        29.76F VSB 3/4


...EASTERN AND COASTAL SOUTH CAROLINA...

CITY           SKY/WX    TMP DP  RH WIND       PRES   REMARKS
MYRTLE BEACH   PTCLDY    63  59  88 W8        29.74S
N MYRTLE BCH   PTCLDY    64  59  83 W6        29.73F
CONWAY         FAIR      61  61 100 CALM      29.74F
MARION         FAIR      63  59  88 W5        29.74S
HARTSVILLE     FAIR      61 N/A N/A W3        29.75F
FLORENCE       CLEAR     62  60  93 W7        29.73F
DARLINGTON     CLEAR     63  57  82 W7        29.74F
CHARLESTON APT CLEAR     64  61  90 W6        29.77F
MOUNT PLEASANT LGT RAIN  64  63  94 W6        29.77F
WALTERBORO     SUNNY     61 N/A N/A W6        29.78F HAZE
BEAUFORT       CLEAR     64  60  87 NW10      29.79F


...EASTERN GEORGIA...

CITY           SKY/WX    TMP DP  RH WIND       PRES   REMARKS
AUGUSTA BUSH F FOG       54  52  93 CALM      29.80S VSB 1/4
AUGUSTA DANIEL CLEAR     63  60  90 W7        29.80F
THOMSON        CLEAR     60  60 100 CALM      29.85F
WASHINGTON     FAIR      63  63 100 W8        29.81F
CLAXTON        FAIR     N/A N/A N/A CALM      29.83S FOG
SYLVANIA       SUNNY     64  61  90 W5        29.82F FOG
STATESBORO     MOCLDY    62  62 100 W7        29.82F
SAVANNAH       CLEAR     63  60  90 W6        29.81F


...SOUTHERN NORTH CAROLINA...

CITY           SKY/WX    TMP DP  RH WIND       PRES   REMARKS
CHARLOTTE      CLEAR     56  55  97 W3        29.75F
MONROE         FOG       57  56  96 SW5       29.74F VSB 1/4
WADESBORO      FOG       58  58  97 CALM      29.73F VSB 1
ROCKINGHAM       N/A     58  58  99 W5        29.73F FOG
RUTHERFORDTON  MOCLDY    51  51 100 NW3       29.79S FOG
ASHEVILLE      CLEAR     57  49  74 N13       29.84S

$$



USA.gov is the U.S. government's official web portal to all federal, state and local government web resources and services.